[[{"header":{"parameterUnit":"m.s-1","parameterCategory":1,"la1":30.2991,"la2":30.254,"lo1":-89.0895,"lo2":-89.0444,"dy":0.0017,"dx":0.0017,"nx":28,"ny":28,"refTime":"2025-05-01T03:00:00:Z","depth":0,"parameterNumber":2,"parameterNumberName":"U-component_of_WINDS"},"data":[0,0,0,0,0,0,0,0,0,0,0,0,0,0,0,0,0,0,0,0,0,0,0,0,0,0,0,0,0,0,0,0,0,0,0,0,0,0,0,0,0,0,0,0,0,0,0,0,0,0,0,0,0,0,0,0,0,0,-0.6688,-0.6689,0,-0.6763,-0.6764,-0.6765,-0.6796,-0.6795,-0.6795,-0.6795,-0.6871,-0.6873,-0.6875,0,0,0,0,0,0,0,0,0,0,0,0,0,-0.6571,-0.6573,-0.6688,-0.6689,-0.669,-0.6763,-0.6764,-0.6765,-0.6796,-0.6795,-0.6795,-0.6795,-0.687,-0.6873,-0.6875,0,0,0,0,0,0,0,0,0,0,0,0,0,-0.6632,-0.6574,-0.6687,-0.6714,-0.6717,-0.6763,-0.6764,-0.6765,-0.6796,-0.6795,-0.6795,-0.6795,-0.6869,-0.6872,-0.6876,-0.69,0,0,-0.6886,-0.6887,0,0,0,0,0,0,0,0,-0.6628,-0.6636,-0.6709,-0.6712,-0.6716,-0.677,-0.6751,-0.681,-0.6796,-0.6766,-0.6795,-0.6795,-0.6837,-0.6843,-0.6858,-0.6904,-0.6907,-0.6886,-0.6888,-0.6889,-0.689,0,0,0,0,0,0,0,-0.6624,-0.6633,-0.6717,-0.671,-0.6714,-0.6722,-0.673,-0.6762,-0.6802,-0.6768,-0.6771,-0.6779,-0.6839,-0.6855,-0.686,-0.6908,-0.6886,-0.6889,-0.6891,-0.6892,-0.6981,-0.6981,0,0,0,0,0,0,-0.6616,-0.6629,-0.6715,-0.672,-0.6671,-0.6724,-0.6734,-0.6752,-0.6802,-0.6809,-0.6779,-0.678,-0.6849,-0.6856,-0.6863,-0.6896,-0.6889,-0.6892,-0.6894,-0.6981,-0.6981,-0.6982,0,0,0,0,0,0,-0.6613,-0.6623,-0.6712,-0.6675,-0.6687,-0.6727,-0.6748,-0.6754,-0.677,-0.681,-0.6817,-0.6788,-0.6849,-0.6858,-0.6891,-0.6899,-0.6894,-0.6897,-0.698,-0.6981,-0.6981,-0.6962,0,0,0,0,0,0,-0.6609,-0.6622,-0.6631,-0.6675,-0.6689,-0.6739,-0.6748,-0.6756,-0.6775,-0.6777,-0.682,-0.6827,-0.685,-0.6886,-0.6895,-0.6903,-0.6899,-0.698,-0.698,-0.6981,-0.6962,-0.6962,-0.6962,0,0,0,0,0,-0.6605,-0.6622,-0.6632,-0.6642,-0.6702,-0.674,-0.6748,-0.6774,-0.6776,-0.6786,-0.6812,-0.6825,-0.6897,-0.689,-0.6899,-0.6909,-0.6979,-0.698,-0.6981,-0.6963,-0.6962,-0.6962,0,0,0,0,0,0,-0.6577,-0.6628,-0.6639,-0.6671,-0.6701,-0.6745,-0.6758,-0.6773,-0.6802,-0.6803,-0.6834,-0.6844,-0.6875,-0.6895,-0.6886,-0.6937,-0.6939,-0.6942,-0.6922,-0.6922,-0.6922,-0.6916,-0.6902,0,0,0,0,0,-0.6575,-0.6602,-0.6645,-0.6669,-0.6683,-0.6718,-0.6736,-0.6754,-0.6786,-0.6798,-0.6827,-0.6857,-0.6887,-0.6906,-0.6935,-0.6966,-0.6976,-0.6978,-0.6977,-0.6977,-0.6979,-0.6999,-0.7,-0.6985,-0.6985,-0.6985,0,0,-0.657,-0.6601,-0.6616,-0.6664,-0.6689,-0.6716,-0.6728,-0.6756,-0.6777,-0.6802,-0.6836,-0.6858,-0.6895,-0.6927,-0.6943,-0.6945,-0.6986,-0.6978,-0.6978,-0.698,-0.7,-0.7001,-0.7002,-0.6985,-0.6985,-0.6985,0,0,-0.6575,-0.6601,-0.6625,-0.665,-0.6689,-0.6712,-0.6718,-0.676,-0.6776,-0.6811,-0.6831,-0.6856,-0.6906,-0.6932,-0.6951,-0.6969,-0.6982,-0.6977,-0.6976,-0.6995,-0.6996,-0.6997,-0.7004,-0.7006,-0.6979,-0.6979,-0.6979,0,-0.6564,-0.6606,-0.6635,-0.6662,-0.6683,-0.6709,-0.6733,-0.6757,-0.6802,-0.6816,-0.6819,-0.6883,-0.6909,-0.6949,-0.6954,-0.6968,-0.6976,-0.6972,-0.6994,-0.6995,-0.6997,-0.7004,-0.7006,-0.6979,-0.6979,-0.6979,-0.6979,0,-0.6591,-0.662,-0.6634,-0.6679,-0.6702,-0.6727,-0.6761,-0.678,-0.6797,-0.682,-0.6856,-0.6889,-0.6926,-0.6937,-0.6953,-0.698,-0.698,-0.6987,-0.6991,-0.6997,-0.7004,-0.7007,-0.6977,-0.6978,-0.6978,-0.6978,0,0,-0.6579,-0.6641,-0.6646,-0.6667,-0.6713,-0.6736,-0.6763,-0.6801,-0.6817,-0.6848,-0.6873,-0.6916,-0.6924,-0.6946,-0.6965,-0.6982,-0.6995,-0.6987,-0.6989,-0.6988,-0.7028,-0.7022,-0.7024,-0.7004,-0.7005,-0.7005,-0.7025,0,-0.6591,-0.6641,-0.6669,-0.6708,-0.6736,-0.6762,-0.6786,-0.6817,-0.684,-0.6867,-0.6893,-0.6923,-0.6931,-0.6944,-0.6962,-0.6989,-0.7003,-0.6988,-0.7028,-0.7029,-0.7018,-0.7028,-0.7021,-0.7038,-0.7028,-0.7028,-0.7028,0,-0.661,-0.6643,-0.6684,-0.6729,-0.6741,-0.6762,-0.68,-0.6825,-0.6861,-0.6877,-0.6903,-0.6923,-0.6954,-0.6955,-0.6999,-0.6988,-0.7006,-0.7022,-0.7024,-0.7028,-0.7029,-0.7033,-0.7044,-0.7046,-0.7033,-0.7033,-0.7032,0,-0.6599,-0.6652,-0.6685,-0.6702,-0.6754,-0.6769,-0.6791,-0.6827,-0.6848,-0.6881,-0.6895,-0.6931,-0.695,-0.6978,-0.7007,-0.7005,-0.7048,-0.7051,-0.7062,-0.7062,-0.707,-0.7069,-0.7084,-0.7081,-0.7081,-0.7081,-0.7081,0,-0.6609,-0.6633,-0.668,-0.67,-0.6729,-0.6762,-0.679,-0.6814,-0.6846,-0.6872,-0.6896,-0.692,-0.6957,-0.6985,-0.7008,-0.7042,-0.705,-0.7064,-0.707,-0.7062,-0.706,-0.7074,-0.7074,-0.7082,-0.7082,-0.7081,-0.7081,0,-0.66,-0.6632,-0.6669,-0.6716,-0.6729,-0.6748,-0.6788,-0.6809,-0.6834,-0.6867,-0.6876,-0.6916,-0.6951,-0.6983,-0.7029,-0.7045,-0.7079,-0.7086,-0.7066,-0.707,-0.7079,-0.7078,-0.7103,-0.7108,-0.7102,-0.7102,-0.7102,0,-0.6604,-0.6624,-0.6673,-0.6692,-0.6715,-0.6745,-0.6767,-0.68,-0.6823,-0.6867,-0.6882,-0.6919,-0.6951,-0.7005,-0.7038,-0.7074,-0.7083,-0.7089,-0.7088,-0.708,-0.7084,-0.7082,-0.7085,-0.7089,-0.7089,-0.7089,-0.7089,0,-0.6608,-0.6624,-0.6655,-0.6692,-0.6718,-0.6749,-0.6781,-0.6795,-0.6835,-0.6859,-0.6895,-0.6919,-0.6968,-0.7004,-0.7045,-0.7068,-0.7085,-0.7089,-0.7093,-0.7085,-0.7074,-0.7081,-0.7066,-0.7088,-0.7088,-0.7088,-0.7088,-0.7088,-0.6606,-0.6626,-0.6664,-0.6699,-0.6726,-0.6756,-0.6778,-0.6807,-0.6838,-0.688,-0.6898,-0.6936,-0.6973,-0.7029,-0.7052,-0.7083,-0.7086,-0.7092,-0.7094,-0.7095,-0.7094,-0.7069,-0.709,-0.709,-0.709,-0.709,-0.709,0,-0.6613,-0.6639,-0.667,-0.6715,-0.6742,-0.6757,-0.6793,-0.6815,-0.6848,-0.6881,-0.6912,-0.6955,-0.6991,-0.7028,-0.7067,-0.7084,-0.7093,-0.7093,-0.7092,-0.7097,-0.7088,-0.7081,-0.7085,-0.7085,-0.7085,-0.7085,-0.7085,-0.7085,-0.6619,-0.6653,-0.6674,-0.6722,-0.6749,-0.6786,-0.6806,-0.6833,-0.6861,-0.6908,-0.6938,-0.6962,-0.6998,-0.7039,-0.7074,-0.7084,-0.7097,-0.7095,-0.7107,-0.7098,-0.7098,-0.7098,-0.7091,-0.7097,-0.7097,-0.7114,-0.7114,-0.7114]},{"header":{"parameterUnit":"m.s-1","parameterCategory":1,"la1":30.2991,"la2":30.254,"lo1":-89.0895,"lo2":-89.0444,"dy":0.0017,"dx":0.0017,"nx":28,"ny":28,"refTime":"2025-05-01T03:00:00:Z","depth":0,"parameterNumber":3,"parameterNumberName":"V-component_of_WINDS"},"data":[0,0,0,0,0,0,0,0,0,0,0,0,0,0,0,0,0,0,0,0,0,0,0,0,0,0,0,0,0,0,0,0,0,0,0,0,0,0,0,0,0,0,0,0,0,0,0,0,0,0,0,0,0,0,0,0,0,0,6.0177,6.0179,0,6.0421,6.0424,6.0427,6.0439,6.0436,6.0433,6.0431,6.0672,6.0681,6.069,0,0,0,0,0,0,0,0,0,0,0,0,0,5.9709,5.9717,6.0176,6.018,6.0183,6.0421,6.0424,6.0428,6.0439,6.0436,6.0433,6.0429,6.0669,6.068,6.0691,0,0,0,0,0,0,0,0,0,0,0,0,0,5.9928,5.972,6.0176,6.0218,6.0224,6.042,6.0424,6.0428,6.044,6.0436,6.0432,6.0428,6.0666,6.0679,6.0692,6.0861,0,0,6.0734,6.074,0,0,0,0,0,0,0,0,5.9916,5.9945,6.0208,6.0215,6.0222,6.0396,6.0348,6.0573,6.0441,6.0358,6.0431,6.0426,6.0583,6.0603,6.0658,6.0872,6.0883,6.0735,6.0743,6.0749,6.0753,0,0,0,0,0,0,0,5.9901,5.9935,6.0273,6.0212,6.0221,6.022,6.0247,6.0391,6.0491,6.0365,6.0366,6.0395,6.0586,6.0645,6.0664,6.0886,6.0735,6.0747,6.0755,6.076,6.1248,6.1253,0,0,0,0,0,0,5.9879,5.9922,6.0265,6.028,6.0056,6.0232,6.0262,6.0344,6.0489,6.0508,6.0399,6.0395,6.0624,6.0648,6.0672,6.0879,6.0749,6.0762,6.077,6.1244,6.1249,6.1255,0,0,0,0,0,0,5.9869,5.9909,6.0255,6.0102,6.0146,6.0245,6.0337,6.0351,6.041,6.0515,6.0532,6.0442,6.0621,6.0653,6.0814,6.0887,6.0768,6.078,6.1238,6.1245,6.1252,6.1293,0,0,0,0,0,0,5.9855,5.9906,5.9974,6.0104,6.0154,6.0397,6.0342,6.0359,6.0435,6.0432,6.056,6.0577,6.062,6.0794,6.0828,6.0904,6.0791,6.1232,6.1241,6.125,6.1286,6.1301,6.1314,0,0,0,0,0,5.9839,5.9974,5.9977,6.0018,6.0242,6.0401,6.043,6.048,6.0441,6.0508,6.0575,6.0573,6.0873,6.081,6.0848,6.093,6.1227,6.1239,6.1249,6.1279,6.1298,6.1313,0,0,0,0,0,0,5.9848,5.9992,5.9997,6.0179,6.0278,6.0403,6.049,6.0498,6.0608,6.0601,6.0655,6.0683,6.0843,6.0902,6.0829,6.1099,6.1045,6.1064,6.1055,6.1074,6.1087,6.107,6.0802,0,0,0,0,0,5.9871,5.9992,6.011,6.0259,6.0309,6.039,6.0462,6.0492,6.0595,6.0636,6.0715,6.0813,6.0929,6.1004,6.1117,6.1293,6.132,6.1368,6.1382,6.1393,6.1409,6.1504,6.1526,6.129,6.129,6.129,0,0,5.9921,6.0014,6.0087,6.0263,6.0343,6.0464,6.0426,6.0555,6.0644,6.0655,6.0813,6.0873,6.0985,6.1154,6.1233,6.1209,6.1479,6.1406,6.1414,6.1425,6.1517,6.1539,6.1559,6.1297,6.1296,6.1295,0,0,6.0073,6.0156,6.0289,6.0371,6.0493,6.0546,6.0578,6.0701,6.0743,6.0903,6.0913,6.1017,6.1217,6.1296,6.1362,6.154,6.1542,6.1575,6.1649,6.1741,6.1759,6.1776,6.1839,6.186,6.159,6.159,6.159,0,6.0118,6.0303,6.0356,6.0486,6.0562,6.0579,6.0712,6.0787,6.0938,6.0989,6.096,6.121,6.1287,6.1474,6.1517,6.157,6.1606,6.1562,6.1753,6.177,6.1787,6.1847,6.187,6.1594,6.1593,6.1593,6.1593,0,6.0352,6.048,6.0572,6.0721,6.0807,6.0937,6.1006,6.1086,6.1107,6.1162,6.1322,6.1414,6.1545,6.1591,6.1613,6.178,6.1762,6.1742,6.169,6.1812,6.1869,6.1892,6.1598,6.1597,6.1596,6.1595,0,0,6.0519,6.0695,6.0727,6.0794,6.0929,6.1027,6.1156,6.1287,6.1354,6.1456,6.1564,6.1731,6.1714,6.1789,6.1819,6.19,6.2033,6.187,6.1873,6.1897,6.2221,6.2235,6.2261,6.2034,6.2039,6.2042,6.2211,0,6.0686,6.0921,6.097,6.1171,6.1288,6.1304,6.1416,6.1509,6.1563,6.1666,6.1724,6.1842,6.181,6.1856,6.1936,6.2,6.2099,6.1988,6.2132,6.2137,6.2105,6.2292,6.2308,6.2463,6.2234,6.2238,6.2241,0,6.0913,6.1024,6.1237,6.1355,6.1406,6.1506,6.1628,6.1729,6.1832,6.1865,6.1948,6.1968,6.2099,6.2039,6.2218,6.2142,6.2202,6.2242,6.2249,6.2265,6.2197,6.2312,6.2514,6.2537,6.2277,6.2274,6.2271,0,6.1013,6.1215,6.1369,6.1425,6.1566,6.1636,6.1697,6.1797,6.1871,6.1977,6.2025,6.2143,6.2207,6.2296,6.2346,6.2298,6.2521,6.2465,6.2549,6.2548,6.2596,6.2593,6.2811,6.2635,6.2635,6.2634,6.2634,0,6.1195,6.1324,6.1415,6.151,6.1654,6.1707,6.1847,6.1907,6.1995,6.2099,6.2118,6.2214,6.2274,6.2377,6.2416,6.2558,6.2586,6.2614,6.2623,6.2614,6.261,6.2655,6.2645,6.2641,6.2639,6.2638,6.2637,0,6.1332,6.1399,6.1567,6.1686,6.1719,6.182,6.192,6.2011,6.2063,6.2194,6.2227,6.2309,6.2431,6.2489,6.264,6.2666,6.2826,6.2827,6.2792,6.2796,6.2876,6.2868,6.3132,6.3168,6.2968,6.2969,6.2971,0,6.1445,6.1545,6.1675,6.1747,6.1811,6.1927,6.2003,6.2057,6.2135,6.2259,6.2333,6.2457,6.2559,6.2753,6.2823,6.2938,6.2942,6.3026,6.2959,6.2945,6.2943,6.2936,6.2946,6.3039,6.304,6.3042,6.3043,0,6.1636,6.1664,6.1775,6.1897,6.1988,6.2086,6.2182,6.2239,6.2307,6.2393,6.252,6.2599,6.2753,6.2875,6.2994,6.3052,6.3059,6.3064,6.3089,6.308,6.3056,6.3069,6.2825,6.3058,6.3056,6.3055,6.3054,6.3054,6.1765,6.1854,6.196,6.2082,6.216,6.2249,6.2339,6.2403,6.2511,6.2643,6.2666,6.28,6.2897,6.3058,6.312,6.3223,6.3203,6.324,6.325,6.3258,6.3262,6.3039,6.3244,6.3244,6.3244,6.3243,6.3243,0,6.1958,6.2026,6.2138,6.2272,6.2367,6.2367,6.2472,6.2551,6.2669,6.276,6.286,6.3004,6.3121,6.32,6.3317,6.3384,6.3389,6.3413,6.3408,6.3421,6.3273,6.324,6.3406,6.3406,6.3406,6.3406,6.3406,6.3406,6.207,6.222,6.2259,6.2447,6.2513,6.2647,6.2707,6.2787,6.286,6.3021,6.3119,6.317,6.3255,6.3379,6.3484,6.3504,6.3546,6.357,6.3589,6.3449,6.3432,6.3416,6.3384,6.3579,6.3579,6.3729,6.373,6.3731]}]]